Weather History for KELP - August, 2013

Change the Weather History Date:

Tuesday, August 13, 2013

  Actual Average Record
Temperature  
Mean Temperature 86 °F 81 °F  
Max Temperature 95 °F 93 °F 102 °F (2010)
Min Temperature 76 °F 70 °F 56 °F (1979)
Degree Days  
Heating Degree Days 0 0  
Month to date heating degree days 0 0  
Since 1 June heating degree days 0 0  
Since 1 July heating degree days 0 0  
Cooling Degree Days 21 16  
Month to date cooling degree days 257 218  
Year to date cooling degree days 1973 1649  
Since 1 June cooling degree days 1465 1272  
Growing Degree Days 35 (Base 50)    
Moisture  
Dew Point 57 °F    
Average Humidity 42    
Maximum Humidity 56    
Minimum Humidity 28    
Precipitation  
Precipitation 0.00 in 0.07 in 1.80 in (1941)
Month to date precipitation 0.03 0.97  
Year to date precipitation 4.21 5.28  
Snow  
Snow 0.00 in - - ()
Month to date snowfall 0.0  
Since 1 June snowfall T  
Since 1 July snowfall T  
Snow Depth 0.00 in    
Sea Level Pressure  
Sea Level Pressure 29.85 in    
Wind  
Wind Speed 8 mph (NNE)    
Max Wind Speed 17 mph    
Max Gust Speed 22 mph    
Visibility 10 miles    
Events      
T = Trace of Precipitation, MM = Missing Value Source: NWS Daily Summary

Daily Weather History Graph

Daily Weather History Graph

Search for Another Location

Airport or City:

Trip Planner

Search our weather history database for the weather conditions in past years. The results will help you decide how hot, cold, wet, or windy it might be!

Date:

Astronomy

Aug. 13, 2013 Rise Set
Actual Time 6:29 AM MDT 7:50 PM MDT
Civil Twilight 6:03 AM MDT 8:16 PM MDT
Nautical Twilight 5:32 AM MDT 8:47 PM MDT
Astronomical Twilight 5:00 AM MDT 9:19 PM MDT
Moon 12:58 PM MDT (8/13) 11:57 PM MDT (8/13)
Length of Visible Light 14h 13m
Length of Day
13h 21m
Waxing Crescent, 42% of the Moon is Illuminated
Aug 13
Waxing Crescent
Aug 14
First Quarter
Aug 20
Full
Aug 28
Last Quarter
Sep 5
New

Hourly Weather History & Observations

Time (MDT) Temp. Heat Index Dew Point Humidity Pressure Visibility Wind Dir Wind Speed Gust Speed Precip Events Conditions
12:51 AM 81.0 °F 81.1 °F 57.9 °F 45% 29.85 in 10.0 mi NNE 9.2 mph - N/A   Scattered Clouds
1:51 AM 80.1 °F 80.6 °F 57.9 °F 47% 29.83 in 10.0 mi North 4.6 mph - N/A   Scattered Clouds
2:51 AM 79.0 °F - 59.0 °F 50% 29.84 in 10.0 mi North 6.9 mph - N/A   Partly Cloudy
3:51 AM 79.0 °F - 59.0 °F 50% 29.85 in 10.0 mi NNW 9.2 mph - N/A   Scattered Clouds
4:51 AM 78.1 °F - 59.0 °F 52% 29.85 in 10.0 mi NE 4.6 mph - N/A   Scattered Clouds
5:51 AM 78.1 °F - 59.0 °F 52% 29.86 in 10.0 mi NNE 5.8 mph - N/A   Scattered Clouds
6:51 AM 77.0 °F - 60.1 °F 56% 29.88 in 10.0 mi NNE 9.2 mph - N/A   Scattered Clouds
7:51 AM 78.1 °F - 60.1 °F 54% 29.89 in 10.0 mi NNW 9.2 mph - N/A   Mostly Cloudy
8:51 AM 82.9 °F 82.8 °F 59.0 °F 44% 29.90 in 10.0 mi NNW 4.6 mph - N/A   Mostly Cloudy
9:51 AM 86.0 °F 84.9 °F 57.0 °F 37% 29.90 in 10.0 mi NNW 10.4 mph - N/A   Scattered Clouds
10:51 AM 88.0 °F 87.1 °F 59.0 °F 37% 29.90 in 10.0 mi North 13.8 mph - N/A   Scattered Clouds
11:51 AM 88.0 °F 86.9 °F 57.9 °F 36% 29.90 in 10.0 mi North 10.4 mph - N/A   Mostly Cloudy
12:51 PM 90.0 °F 89.1 °F 59.0 °F 35% 29.88 in 10.0 mi North 10.4 mph 18.4 mph N/A   Mostly Cloudy
1:51 PM 91.0 °F 89.7 °F 57.0 °F 32% 29.86 in 10.0 mi NNW 12.7 mph 17.3 mph N/A   Mostly Cloudy
2:51 PM 91.0 °F 89.7 °F 57.0 °F 32% 29.85 in 10.0 mi North 9.2 mph - N/A   Mostly Cloudy
3:51 PM 93.0 °F 91.4 °F 55.9 °F 29% 29.82 in 10.0 mi North 10.4 mph - N/A   Scattered Clouds
4:51 PM 93.9 °F 92.0 °F 55.0 °F 27% 29.81 in 10.0 mi North 11.5 mph - N/A   Scattered Clouds
5:51 PM 93.9 °F 92.0 °F 55.0 °F 27% 29.79 in 10.0 mi NE 12.7 mph - N/A   Scattered Clouds
6:51 PM 91.9 °F 89.5 °F 54.0 °F 27% 29.78 in 10.0 mi NE 9.2 mph - N/A   Scattered Clouds
7:51 PM 90.0 °F 87.7 °F 54.0 °F 29% 29.80 in 10.0 mi NE 9.2 mph - N/A   Scattered Clouds
8:51 PM 87.1 °F - 50.0 °F 28% 29.81 in 10.0 mi East 5.8 mph - N/A   Scattered Clouds
9:51 PM 82.9 °F 81.8 °F 53.1 °F 36% 29.83 in 10.0 mi East 3.5 mph - N/A   Partly Cloudy
10:51 PM 82.9 °F - 51.1 °F 33% 29.84 in 10.0 mi NE 6.9 mph - N/A   Scattered Clouds
11:51 PM 82.9 °F 81.8 °F 53.1 °F 36% 29.84 in 10.0 mi Calm Calm - N/A   Mostly Cloudy